[[{"header":{"parameterUnit":"m.s-1","parameterCategory":1,"la1":30.2991,"la2":30.254,"lo1":-89.0895,"lo2":-89.0444,"dy":0.0017,"dx":0.0017,"nx":28,"ny":28,"refTime":"2025-01-27T09:00:00:Z","depth":0,"parameterNumber":2,"parameterNumberName":"U-component_of_WINDS"},"data":[0,0,0,0,0,0,0,0,0,0,0,0,0,0,0,0,0,0,0,0,0,0,0,0,0,0,0,0,0,0,0,0,0,0,0,0,0,0,0,0,0,0,0,0,0,0,0,0,0,0,0,0,0,0,0,0,0,0,1.5937,1.5937,0,1.5995,1.5996,1.5997,1.5982,1.5981,1.5979,1.5978,1.6042,1.6045,1.6048,0,0,0,0,0,0,0,0,0,0,0,0,0,1.5816,1.5819,1.5937,1.5937,1.5938,1.5995,1.5996,1.5997,1.5982,1.5981,1.5979,1.5978,1.6041,1.6045,1.6048,0,0,0,0,0,0,0,0,0,0,0,0,0,1.5871,1.5819,1.5936,1.5937,1.5938,1.5995,1.5996,1.5997,1.5982,1.598,1.5979,1.5977,1.604,1.6044,1.6048,1.6109,0,0,1.6061,1.6063,0,0,0,0,0,0,0,0,1.5868,1.5876,1.5937,1.5937,1.5938,1.5979,1.5977,1.6035,1.5983,1.5966,1.5978,1.5976,1.6023,1.6028,1.6043,1.6112,1.6115,1.6062,1.6064,1.6066,1.6067,0,0,0,0,0,0,0,1.5864,1.5873,1.596,1.5937,1.5939,1.5936,1.5942,1.5988,1.6004,1.5967,1.5966,1.5973,1.6023,1.6039,1.6045,1.6116,1.6061,1.6065,1.6068,1.6069,1.6239,1.6241,0,0,0,0,0,0,1.5859,1.587,1.5958,1.5962,1.5898,1.594,1.5947,1.5968,1.6003,1.6006,1.5974,1.5972,1.6033,1.604,1.6047,1.6122,1.6066,1.607,1.6072,1.6237,1.624,1.6242,0,0,0,0,0,0,1.5857,1.5867,1.5956,1.5916,1.5927,1.5944,1.5968,1.597,1.5986,1.6008,1.6012,1.5988,1.6032,1.6041,1.6094,1.6124,1.6072,1.6075,1.6235,1.6238,1.6241,1.6271,0,0,0,0,0,0,1.5853,1.5866,1.5888,1.5916,1.5929,1.6,1.597,1.5972,1.5993,1.5991,1.6022,1.6025,1.6031,1.6088,1.6098,1.6129,1.6079,1.6233,1.6236,1.624,1.6268,1.6275,1.6281,0,0,0,0,0,1.5849,1.5895,1.589,1.59,1.5957,1.6002,1.6009,1.6014,1.5995,1.6019,1.6033,1.6024,1.6119,1.6093,1.6105,1.6137,1.6231,1.6235,1.624,1.6265,1.6274,1.6281,0,0,0,0,0,0,1.5871,1.5899,1.5893,1.5949,1.5973,1.5999,1.6029,1.6023,1.6054,1.6051,1.6056,1.6064,1.6118,1.6133,1.6104,1.6199,1.6172,1.6179,1.6187,1.6196,1.6202,1.6199,1.6082,0,0,0,0,0,1.5883,1.5916,1.5938,1.5986,1.5998,1.6011,1.6031,1.6033,1.6059,1.6069,1.6088,1.6114,1.615,1.6174,1.6207,1.6269,1.6277,1.6298,1.6304,1.631,1.6316,1.6352,1.6362,1.6257,1.6257,1.6257,0,0,1.5907,1.5926,1.5946,1.5991,1.601,1.6046,1.602,1.6059,1.6086,1.6076,1.6127,1.6141,1.6172,1.623,1.6256,1.6244,1.6347,1.6315,1.632,1.6323,1.6358,1.6368,1.6377,1.626,1.626,1.6259,0,0,1.5969,1.5986,1.6028,1.6047,1.6076,1.6085,1.6095,1.6122,1.6132,1.6183,1.6176,1.6209,1.627,1.6293,1.6312,1.6384,1.6378,1.6395,1.6431,1.6466,1.6474,1.6482,1.651,1.6519,1.6401,1.6401,1.6401,0,1.5996,1.6048,1.6051,1.6091,1.6111,1.6102,1.6146,1.6165,1.6204,1.6219,1.6204,1.6282,1.6301,1.6366,1.6383,1.6398,1.6412,1.6392,1.6473,1.648,1.6487,1.6514,1.6524,1.6403,1.6403,1.6403,1.6403,0,1.6081,1.6118,1.6148,1.6186,1.6209,1.6251,1.6262,1.6286,1.6285,1.6296,1.635,1.6373,1.6412,1.6427,1.6428,1.6493,1.6484,1.6471,1.6445,1.6499,1.6524,1.6535,1.6406,1.6405,1.6405,1.6404,0,0,1.6159,1.6197,1.6209,1.6227,1.6258,1.6287,1.6329,1.6367,1.6389,1.6416,1.6453,1.6505,1.6493,1.6516,1.6518,1.6549,1.6607,1.6532,1.6533,1.6547,1.6683,1.6694,1.6706,1.6603,1.6605,1.6606,1.6681,0,1.6226,1.6299,1.6303,1.637,1.6405,1.6397,1.6435,1.6459,1.647,1.6503,1.6516,1.6554,1.6534,1.6548,1.6578,1.6594,1.6635,1.6588,1.664,1.6641,1.6634,1.6719,1.673,1.68,1.6691,1.6692,1.6694,0,1.6314,1.6343,1.6414,1.6442,1.6457,1.649,1.6525,1.6556,1.6584,1.6591,1.6616,1.6615,1.666,1.6631,1.6695,1.6663,1.6684,1.6695,1.6698,1.6705,1.6672,1.6729,1.6822,1.6833,1.6709,1.6708,1.6706,0,1.6367,1.6424,1.6474,1.6489,1.6522,1.6546,1.6561,1.6587,1.661,1.6642,1.6657,1.6694,1.6715,1.6744,1.6754,1.6731,1.6818,1.6789,1.6827,1.6826,1.6846,1.6845,1.6946,1.6857,1.6857,1.6857,1.6856,0,1.6442,1.6486,1.6498,1.6529,1.6579,1.6584,1.6633,1.6647,1.6671,1.6706,1.6701,1.6734,1.6744,1.678,1.6787,1.684,1.6849,1.6857,1.6859,1.6859,1.6858,1.6874,1.687,1.6859,1.6859,1.6858,1.6858,0,1.651,1.652,1.6574,1.6601,1.6609,1.6645,1.6669,1.67,1.671,1.6755,1.6765,1.6783,1.6825,1.6837,1.6887,1.6892,1.6955,1.6952,1.6945,1.6946,1.6984,1.6981,1.7099,1.7116,1.7014,1.7015,1.7016,0,1.6558,1.6592,1.6622,1.6645,1.6661,1.6697,1.6721,1.6727,1.6752,1.6787,1.6814,1.6855,1.6888,1.6956,1.6974,1.7013,1.7012,1.705,1.7018,1.7017,1.7015,1.7014,1.7018,1.7057,1.7058,1.7059,1.706,0,1.6644,1.6647,1.668,1.6715,1.6743,1.6771,1.6799,1.6818,1.6828,1.6857,1.6899,1.6924,1.6976,1.7017,1.7057,1.7074,1.707,1.707,1.7081,1.7082,1.7078,1.7083,1.6965,1.7068,1.7067,1.7066,1.7066,1.7065,1.6705,1.6735,1.6762,1.6799,1.682,1.6846,1.6877,1.6891,1.6926,1.6967,1.6969,1.7016,1.7045,1.7097,1.7117,1.7155,1.7143,1.7159,1.7163,1.7168,1.7172,1.707,1.7162,1.7161,1.7161,1.7161,1.7161,0,1.6792,1.6809,1.6843,1.6881,1.6911,1.6902,1.6932,1.6959,1.6999,1.7026,1.7059,1.7108,1.7149,1.717,1.7211,1.7237,1.7236,1.7248,1.7247,1.7252,1.7178,1.7166,1.7248,1.7248,1.7248,1.7248,1.7248,1.7248,1.6841,1.6892,1.6899,1.6961,1.6978,1.7023,1.7041,1.7065,1.7087,1.7142,1.7175,1.7188,1.7214,1.7257,1.7294,1.73,1.7316,1.7329,1.7334,1.7265,1.7257,1.7248,1.7236,1.7332,1.7332,1.7404,1.7405,1.7405]},{"header":{"parameterUnit":"m.s-1","parameterCategory":1,"la1":30.2991,"la2":30.254,"lo1":-89.0895,"lo2":-89.0444,"dy":0.0017,"dx":0.0017,"nx":28,"ny":28,"refTime":"2025-01-27T09:00:00:Z","depth":0,"parameterNumber":3,"parameterNumberName":"V-component_of_WINDS"},"data":[0,0,0,0,0,0,0,0,0,0,0,0,0,0,0,0,0,0,0,0,0,0,0,0,0,0,0,0,0,0,0,0,0,0,0,0,0,0,0,0,0,0,0,0,0,0,0,0,0,0,0,0,0,0,0,0,0,0,-1.4263,-1.4263,0,-1.4221,-1.4221,-1.422,-1.4278,-1.428,-1.4282,-1.4284,-1.4237,-1.4234,-1.4231,0,0,0,0,0,0,0,0,0,0,0,0,0,-1.4393,-1.4391,-1.4263,-1.4263,-1.4262,-1.4221,-1.4221,-1.422,-1.4277,-1.428,-1.4282,-1.4285,-1.4238,-1.4235,-1.4231,0,0,0,0,0,0,0,0,0,0,0,0,0,-1.4342,-1.439,-1.4264,-1.4286,-1.4288,-1.4221,-1.422,-1.422,-1.4277,-1.428,-1.4283,-1.4286,-1.424,-1.4235,-1.423,-1.4139,0,0,-1.4216,-1.4214,0,0,0,0,0,0,0,0,-1.4345,-1.4337,-1.4283,-1.4284,-1.4286,-1.4258,-1.4249,-1.4192,-1.4276,-1.4281,-1.4284,-1.4287,-1.4241,-1.4237,-1.4222,-1.4136,-1.4134,-1.4215,-1.4212,-1.421,-1.4209,0,0,0,0,0,0,0,-1.4349,-1.434,-1.4247,-1.4282,-1.4284,-1.4298,-1.4294,-1.4239,-1.4244,-1.4281,-1.4285,-1.4279,-1.4243,-1.4226,-1.4221,-1.4134,-1.4215,-1.4211,-1.4208,-1.4206,-1.3974,-1.3971,0,0,0,0,0,0,-1.435,-1.4342,-1.4248,-1.4245,-1.4324,-1.4293,-1.4289,-1.4264,-1.4245,-1.4245,-1.4276,-1.4282,-1.4233,-1.4227,-1.422,-1.4113,-1.421,-1.4206,-1.4203,-1.3978,-1.3974,-1.397,0,0,0,0,0,0,-1.4352,-1.4341,-1.425,-1.4295,-1.4284,-1.4288,-1.4259,-1.4261,-1.4245,-1.4242,-1.4243,-1.4259,-1.4235,-1.4226,-1.4159,-1.4113,-1.4204,-1.4199,-1.3982,-1.3977,-1.3972,-1.3899,0,0,0,0,0,0,-1.4356,-1.4341,-1.4306,-1.4294,-1.4282,-1.419,-1.4256,-1.4258,-1.4237,-1.4244,-1.4225,-1.4225,-1.4237,-1.4166,-1.4155,-1.4108,-1.4196,-1.3986,-1.3979,-1.3974,-1.3905,-1.3892,-1.388,0,0,0,0,0,-1.436,-1.4286,-1.4304,-1.4293,-1.4238,-1.4187,-1.418,-1.4196,-1.4233,-1.4198,-1.4197,-1.4226,-1.412,-1.4159,-1.4146,-1.4097,-1.3989,-1.3981,-1.3974,-1.3911,-1.3894,-1.3881,0,0,0,0,0,0,-1.4291,-1.4285,-1.4305,-1.4225,-1.4206,-1.4197,-1.4153,-1.4177,-1.4147,-1.4154,-1.4174,-1.417,-1.4099,-1.4091,-1.4135,-1.4009,-1.406,-1.405,-1.4017,-1.4001,-1.3989,-1.3992,-1.4192,0,0,0,0,0,-1.4267,-1.4227,-1.4223,-1.4152,-1.4142,-1.4149,-1.4127,-1.4141,-1.4123,-1.4115,-1.4108,-1.4088,-1.4051,-1.4025,-1.399,-1.3905,-1.3903,-1.3865,-1.3852,-1.3842,-1.3833,-1.379,-1.3774,-1.3946,-1.3946,-1.3946,0,0,-1.4216,-1.4207,-1.418,-1.4138,-1.4126,-1.4083,-1.4142,-1.4094,-1.4063,-1.4107,-1.4044,-1.4039,-1.4018,-1.3942,-1.3908,-1.3934,-1.3785,-1.3833,-1.3825,-1.3821,-1.3781,-1.3764,-1.375,-1.3941,-1.3942,-1.3942,0,0,-1.4102,-1.409,-1.4032,-1.4019,-1.4,-1.4006,-1.3992,-1.3979,-1.3978,-1.3916,-1.3949,-1.3912,-1.3846,-1.3831,-1.3814,-1.3698,-1.3724,-1.3686,-1.362,-1.3578,-1.3564,-1.3553,-1.3513,-1.3498,-1.3677,-1.3676,-1.3676,0,-1.404,-1.3978,-1.3998,-1.3949,-1.3931,-1.3971,-1.3912,-1.3898,-1.3868,-1.3854,-1.3883,-1.3804,-1.3792,-1.3715,-1.3687,-1.3671,-1.3657,-1.3688,-1.3565,-1.3553,-1.3542,-1.3505,-1.3489,-1.3672,-1.3673,-1.3673,-1.3673,0,-1.3905,-1.3862,-1.3817,-1.3789,-1.3765,-1.3711,-1.3723,-1.3697,-1.3714,-1.3716,-1.3654,-1.3642,-1.3607,-1.3589,-1.3604,-1.3514,-1.3531,-1.3562,-1.3614,-1.3521,-1.3486,-1.3472,-1.3666,-1.3667,-1.3669,-1.367,0,0,-1.3744,-1.3731,-1.3714,-1.3703,-1.3687,-1.3654,-1.3602,-1.3569,-1.3547,-1.3525,-1.3484,-1.3429,-1.3459,-1.344,-1.3454,-1.3416,-1.3328,-1.3453,-1.3453,-1.3431,-1.323,-1.3208,-1.3191,-1.3345,-1.3343,-1.334,-1.3233,0,-1.3632,-1.3544,-1.3562,-1.3476,-1.3438,-1.3477,-1.3433,-1.3418,-1.3419,-1.3387,-1.3389,-1.335,-1.3392,-1.3381,-1.3346,-1.3346,-1.3288,-1.3354,-1.3307,-1.3305,-1.3312,-1.3172,-1.3147,-1.3046,-1.3219,-1.3217,-1.3215,0,-1.3488,-1.3464,-1.3375,-1.3368,-1.3352,-1.3312,-1.3285,-1.3253,-1.3237,-1.3242,-1.3222,-1.3244,-1.3194,-1.3247,-1.3179,-1.3223,-1.3206,-1.3203,-1.3199,-1.3196,-1.3255,-1.3166,-1.3014,-1.2999,-1.3193,-1.3195,-1.3197,0,-1.3382,-1.3327,-1.3268,-1.3257,-1.3246,-1.3217,-1.3211,-1.3199,-1.3179,-1.3155,-1.3143,-1.3113,-1.3096,-1.3073,-1.3086,-1.3123,-1.3016,-1.307,-1.3019,-1.3019,-1.2995,-1.2996,-1.2839,-1.2981,-1.2982,-1.2982,-1.2982,0,-1.3255,-1.3199,-1.322,-1.3184,-1.3123,-1.3145,-1.3084,-1.3083,-1.3072,-1.3036,-1.3067,-1.3033,-1.3052,-1.302,-1.303,-1.2973,-1.2965,-1.2967,-1.2971,-1.2965,-1.2965,-1.2954,-1.2962,-1.2978,-1.2979,-1.298,-1.298,0,-1.3126,-1.3138,-1.3076,-1.3072,-1.307,-1.3025,-1.3022,-1.2988,-1.2994,-1.2948,-1.2939,-1.2946,-1.291,-1.2921,-1.2881,-1.2888,-1.2817,-1.2828,-1.2822,-1.2826,-1.2775,-1.278,-1.2606,-1.2585,-1.274,-1.2738,-1.2737,0,-1.3045,-1.3003,-1.2996,-1.2975,-1.2968,-1.2933,-1.2914,-1.2934,-1.2912,-1.2894,-1.2862,-1.2829,-1.2803,-1.2743,-1.2745,-1.2715,-1.2728,-1.2669,-1.2723,-1.272,-1.2729,-1.2732,-1.2729,-1.2658,-1.2656,-1.2655,-1.2653,0,-1.29,-1.2908,-1.288,-1.2854,-1.2831,-1.2811,-1.2794,-1.2775,-1.2794,-1.2769,-1.2733,-1.2713,-1.2674,-1.2641,-1.2614,-1.2608,-1.2634,-1.2636,-1.2624,-1.2618,-1.2617,-1.2618,-1.2794,-1.264,-1.2642,-1.2642,-1.2643,-1.2644,-1.2793,-1.276,-1.275,-1.2718,-1.2708,-1.2692,-1.2661,-1.2664,-1.2635,-1.2605,-1.2619,-1.2578,-1.2566,-1.2533,-1.2524,-1.2492,-1.2515,-1.2496,-1.2491,-1.2486,-1.2481,-1.2621,-1.2487,-1.2488,-1.2488,-1.2488,-1.2489,0,-1.2651,-1.2648,-1.2618,-1.2595,-1.257,-1.2599,-1.2582,-1.2559,-1.2523,-1.251,-1.2486,-1.2446,-1.2415,-1.2415,-1.2386,-1.2361,-1.2373,-1.2353,-1.2356,-1.2354,-1.2461,-1.2476,-1.2345,-1.2345,-1.2345,-1.2345,-1.2345,-1.2345,-1.2575,-1.252,-1.2528,-1.2469,-1.2466,-1.2427,-1.2416,-1.2402,-1.2392,-1.2347,-1.2322,-1.2323,-1.2316,-1.2288,-1.2261,-1.2262,-1.225,-1.2227,-1.2232,-1.2332,-1.2346,-1.236,-1.2374,-1.2224,-1.2223,-1.2128,-1.2127,-1.2127]}]]